CW2597 Weather Reports


Display with metric or nautical units.
time (UTC)temp
F
wind
direction
speed
MPH
gust
MPH
rain 1hr
in
rain 24hr
in
rain mn
in
humidity
%
barometer
mb
20260904144204 64 241 5.0 13.0 0.06 0.20 0.20 90 1007.0
20260904143705 64 254 3.0 12.0 0.06 0.20 0.20 91 1007.5
20260904143205 64 249 5.0 12.0 0.06 0.20 0.20 90 1007.3
20260904142705 64 243 5.0 15.0 0.06 0.20 0.20 90 1007.3
20260904142510 64 226 5.0 15.0 0.06 0.20 0.20 90 1006.5
20260904142204 64 262 4.0 13.0 0.06 0.20 0.20 90 1007.4
20260904141511 64 246 6.0 18.0 0.05 0.18 0.18 90 1006.0
20260904141205 64 246 6.0 18.0 0.06 0.18 0.18 90 1006.9
20260904140705 65 260 4.0 12.0 0.06 0.17 0.17 90 1007.1
20260904140204 65 243 5.0 12.0 0.07 0.17 0.17 90 1006.8
20260904135513 65 225 4.0 15.0 0.10 0.17 0.17 90 1005.8
20260904135204 65 229 5.0 12.0 0.11 0.17 0.17 90 1006.8
20260904134704 65 236 4.0 14.0 0.10 0.16 0.16 89 1006.9
20260904134204 65 241 4.0 9.0 0.09 0.15 0.15 89 1006.9
20260904133704 65 224 5.0 13.0 0.10 0.15 0.15 89 1006.8
20260904133510 65 261 6.0 14.0 0.10 0.15 0.15 89 1005.8
20260904133204 65 238 6.0 17.0 0.10 0.15 0.15 89 1006.9
20260904132704 65 244 6.0 18.0 0.09 0.14 0.14 89 1006.9
20260904132510 65 277 7.0 18.0 0.09 0.14 0.14 89 1005.9
20260904132205 65 254 4.0 15.0 0.09 0.14 0.14 89 1006.8
20260904131205 66 218 5.0 12.0 0.08 0.13 0.13 89 1007.1
20260904130704 66 203 5.0 12.0 0.06 0.11 0.11 88 1007.2
20260904130510 66 221 4.0 11.0 0.06 0.11 0.11 88 1006.4
20260904130205 66 239 3.0 10.0 0.05 0.09 0.09 87 1007.3
20260904125704 67 263 5.0 13.0 0.02 0.07 0.07 86 1007.4
20260904125204 67 258 4.0 14.0 0.01 0.06 0.06 85 1007.4
20260904124705 67 253 4.0 13.0 0.01 0.06 0.06 85 1007.1
20260904124510 67 248 4.0 13.0 0.01 0.06 0.06 85 1006.1
20260904124204 68 242 5.0 18.0 0.01 0.06 0.06 84 1006.9
20260904123704 68 251 2.0 9.0 0.00 0.05 0.05 83 1006.9
20260904123510 68 273 5.0 14.0 0.00 0.05 0.05 83 1005.9
20260904123204 68 259 7.0 21.0 0.00 0.05 0.05 81 1006.9
20260904122704 69 250 8.0 20.0 0.01 0.05 0.05 79 1006.9
20260904122205 70 258 9.0 15.0 0.02 0.05 0.05 80 1006.9
20260904121704 70 263 5.0 13.0 0.02 0.05 0.05 81 1007.0
20260904120704 70 286 7.0 16.0 0.02 0.05 0.05 84 1006.6
20260904120510 70 207 4.0 16.0 0.02 0.05 0.05 84 1005.6
20260904120205 70 223 6.0 12.0 0.02 0.05 0.05 85 1006.7
20260904115704 70 256 5.0 12.0 0.02 0.05 0.05 87 1006.6
20260904115205 70 250 5.0 16.0 0.02 0.05 0.05 87 1006.7
20260904114704 70 266 5.0 12.0 0.02 0.05 0.05 87 1006.8
20260904113705 70 247 7.0 14.0 0.02 0.05 0.05 87 1006.4
20260904113512 70 256 8.0 16.0 0.02 0.05 0.05 87 1005.4
20260904113204 70 229 6.0 16.0 0.02 0.05 0.05 87 1006.3
20260904112704 70 266 6.0 14.0 0.02 0.05 0.04 85 1006.5
20260904112511 71 274 6.0 16.0 0.01 0.03 0.03 85 1005.5
20260904112205 71 236 6.0 17.0 0.02 0.05 0.03 85 1005.9
20260904111704 70 243 7.0 20.0 0.02 0.05 0.03 85 1005.8
20260904111512 70 257 8.0 21.0 0.02 0.03 0.03 85 1004.8
20260904111204 70 244 8.0 21.0 0.02 0.06 0.03 85 1005.8
20260904110705 70 213 6.0 13.0 0.01 0.06 0.02 85 1005.8
20260904110511 71 215 5.0 14.0 0.01 0.02 0.02 85 1005.0
20260904110205 71 220 4.0 10.0 0.02 0.06 0.02 85 1005.9
20260904105204 70 224 4.0 17.0 0.02 0.07 0.02 85 1006.0
20260904104204 70 234 5.0 13.0 0.02 0.07 0.02 87 1006.2
20260904103204 70 225 3.0 12.0 0.02 0.07 0.02 85 1006.2
20260904102704 71 234 3.0 12.0 0.02 0.07 0.02 84 1006.2
20260904102511 71 208 3.0 11.0 0.02 0.02 0.02 84 1005.2
20260904101704 72 0 0.0 0.0 0.02 0.06 0.02 81 1006.2
20260904101511 72 197 0.0 0.0 0.02 0.02 0.02 80 1005.4
20260904101204 73 0 0.0 0.0 0.02 0.06 0.02 79 1006.2
20260904100704 73 0 0.0 0.0 0.02 0.06 0.02 78 1006.3
20260904100205 73 0 0.0 0.0 0.01 0.06 0.01 77 1006.2
20260904095704 73 0 0.0 0.0 0.01 0.06 0.01 76 1006.1
20260904095511 73 197 0.0 0.0 0.01 0.01 0.01 76 1005.2
20260904094511 73 187 0.0 1.0 0.01 0.01 0.01 77 1005.4
20260904093704 73 179 0.0 6.0 0.01 0.06 0.01 77 1006.4
20260904093511 73 298 0.0 6.0 0.01 0.01 0.01 76 1005.4
20260904093205 73 311 1.0 12.0 0.01 0.06 0.01 77 1006.3
20260904092704 73 241 3.0 15.0 0.00 0.05 0.00 76 1006.4
20260904092511 73 246 6.0 18.0 0.00 0.00 0.00 75 1005.5
20260904092204 73 226 6.0 18.0 0.00 0.05 0.00 75 1006.2
20260904091704 73 228 6.0 17.0 0.00 0.05 0.00 75 1006.3
20260904091511 73 227 5.0 17.0 0.00 0.00 0.00 75 1005.4
20260904091204 73 216 5.0 14.0 0.00 0.05 0.00 76 1006.5
20260904090704 73 233 2.0 13.0 0.00 0.05 0.00 76 1006.5
20260904090511 73 267 4.0 12.0 0.00 0.00 0.00 76 1005.5
20260904085704 72 231 5.0 15.0 0.00 0.05 0.00 76 1006.5
20260904085511 72 192 3.0 14.0 0.00 0.00 0.00 77 1005.6
20260904084704 72 231 3.0 13.0 0.00 0.05 0.00 77 1006.7
20260904084511 72 217 3.0 13.0 0.00 0.00 0.00 77 1005.9
20260904084204 72 222 3.0 20.0 0.00 0.05 0.00 77 1006.8
20260904083705 72 225 6.0 14.0 0.00 0.05 0.00 77 1006.8
20260904083511 72 283 3.0 14.0 0.00 0.00 0.00 78 1005.9
20260904083204 72 229 4.0 14.0 0.00 0.05 0.00 78 1006.8
20260904082511 71 225 5.0 15.0 0.00 0.00 0.00 77 1006.0
20260904082204 71 220 5.0 13.0 0.00 0.05 0.00 77 1007.0
20260904081704 71 214 5.0 14.0 0.00 0.05 0.00 78 1007.0
20260904081511 71 192 5.0 14.0 0.00 0.00 0.00 78 1006.0
20260904081204 71 217 6.0 12.0 0.00 0.05 0.00 78 1006.9
20260904080704 71 214 5.0 14.0 0.00 0.05 0.00 78 1007.0
20260904080204 71 240 2.0 10.0 0.00 0.05 0.00 78 1007.0
20260904075704 71 234 3.0 17.0 0.00 0.05 0.00 78 1007.1
20260904075512 71 225 4.0 17.0 0.00 0.00 0.00 78 1006.2
20260904075204 71 234 3.0 12.0 0.00 0.05 0.00 78 1007.1
20260904074704 71 231 5.0 14.0 0.00 0.05 0.00 78 1007.1
20260904074511 71 221 4.0 14.0 0.00 0.00 0.00 78 1006.2
20260904074204 71 214 4.0 14.0 0.00 0.05 0.00 78 1007.2
20260904073704 71 218 3.0 14.0 0.00 0.05 0.00 78 1007.4
20260904073511 71 249 4.0 14.0 0.00 0.00 0.00 78 1006.4
20260904073204 71 226 2.0 13.0 0.00 0.05 0.00 78 1007.4
20260904072511 71 231 5.0 14.0 0.00 0.00 0.00 78 1006.4
20260904072204 71 232 5.0 12.0 0.00 0.05 0.00 78 1007.5
20260904071704 71 229 6.0 14.0 0.00 0.05 0.00 78 1007.5
20260904071511 71 228 5.0 14.0 0.00 0.00 0.00 78 1006.5
20260904071204 71 240 2.0 10.0 0.00 0.05 0.00 79 1007.6
20260904070704 71 222 3.0 20.0 0.00 0.05 0.00 79 1007.7
20260904070512 71 191 2.0 12.0 0.00 0.00 0.00 79 1006.7
20260904070205 71 214 5.0 13.0 0.00 0.05 0.00 79 1007.7
20260904065704 70 222 4.0 12.0 0.00 0.05 0.00 80 1007.8
20260904065511 70 196 2.0 11.0 0.00 0.00 0.00 80 1006.8
20260904064704 70 224 1.0 12.0 0.00 0.05 0.00 80 1008.1
20260904064511 70 232 2.0 11.0 0.00 0.00 0.00 80 1007.2
20260904064204 70 234 2.0 15.0 0.00 0.05 0.00 80 1008.1
20260904063511 70 219 2.0 15.0 0.00 0.00 0.00 81 1007.3
20260904063204 70 237 4.0 15.0 0.00 0.05 0.00 82 1008.1
20260904062704 70 226 3.0 13.0 0.00 0.05 0.00 82 1008.2
20260904062204 70 225 3.0 12.0 0.00 0.05 0.00 82 1008.3
20260904061704 70 220 3.0 12.0 0.00 0.05 0.00 82 1008.3
20260904061204 70 227 2.0 10.0 0.00 0.05 0.00 82 1008.2
20260904060704 70 221 3.0 12.0 0.00 0.05 0.00 82 1008.3
20260904060511 70 279 3.0 12.0 0.00 0.00 0.00 82 1007.3
20260904055704 70 234 3.0 15.0 0.00 0.05 0.00 83 1008.3
20260904055511 70 202 3.0 12.0 0.00 0.00 0.00 83 1007.4
20260904055204 70 214 2.0 12.0 0.00 0.05 0.00 83 1008.5
20260904054704 70 217 3.0 15.0 0.00 0.05 0.00 83 1008.6
20260904054204 70 218 2.0 12.0 0.00 0.05 0.00 83 1008.7
20260904053704 70 218 0.0 9.0 0.00 0.05 0.00 83 1008.7
20260904053511 70 242 1.0 9.0 0.00 0.00 0.00 83 1007.7
20260904053203 70 222 0.0 9.0 0.00 0.05 0.00 83 1008.6
20260904052704 69 230 3.0 12.0 0.00 0.05 0.00 83 1008.6
20260904052511 69 170 2.0 12.0 0.00 0.00 0.00 83 1007.7
20260904052204 69 218 0.0 5.0 0.00 0.05 0.00 83 1008.7
20260904051704 69 225 1.0 15.0 0.00 0.05 0.00 84 1008.8
20260904051511 69 234 3.0 15.0 0.00 0.00 0.00 84 1007.9
20260904050706 69 213 2.0 12.0 0.00 0.05 0.00 84 1008.7
20260904050511 69 245 1.0 12.0 0.00 0.00 0.00 84 1007.9
20260904045706 69 210 1.0 7.0 0.00 0.05 0.00 84 1009.1
20260904045511 69 225 0.0 5.0 0.00 0.00 0.00 84 1008.1
20260904045205 69 229 0.0 10.0 0.00 0.05 0.00 84 1009.0
20260904044511 69 210 1.0 6.0 0.00 0.00 0.00 84 1008.2
20260904043511 69 249 1.0 7.0 0.00 0.00 0.00 84 1008.5
20260904043206 69 232 1.0 8.0 0.00 0.05 0.00 84 1009.4
20260904042512 69 179 1.0 10.0 0.00 0.00 0.00 84 1008.6
20260904042206 69 234 0.0 2.0 0.00 0.05 0.00 84 1009.5
20260904041706 69 215 1.0 8.0 0.00 0.05 0.00 84 1009.6
20260904041511 69 227 1.0 9.0 0.00 0.00 0.00 84 1008.6
20260904041206 69 235 0.0 9.0 0.00 0.05 0.00 84 1009.5
20260904040705 69 215 1.0 5.0 0.00 0.05 0.00 84 1009.6
20260904040511 69 233 0.0 6.0 0.00 0.00 0.00 84 1008.7
20260904040205 69 223 1.0 10.0 0.00 0.05 0.00 84 1009.6
20260904035511 69 222 1.0 9.0 0.00 0.00 0.00 85 1008.7
20260904035205 69 207 1.0 12.0 0.00 0.05 0.00 85 1009.6
20260904034706 69 219 1.0 8.0 0.00 0.05 0.00 85 1009.7
20260904034511 69 227 1.0 8.0 0.00 0.00 0.00 85 1008.9
20260904034205 69 219 2.0 12.0 0.00 0.05 0.00 85 1009.9
20260904033705 69 210 2.0 9.0 0.00 0.05 0.00 85 1009.9
20260904033511 69 239 1.0 9.0 0.00 0.00 0.00 85 1009.0
20260904033206 69 222 1.0 8.0 0.00 0.05 0.00 85 1010.1
20260904032705 69 213 2.0 12.0 0.00 0.05 0.00 85 1010.2
20260904032511 69 217 1.0 7.0 0.00 0.00 0.00 85 1009.3
20260904032206 69 218 1.0 8.0 0.00 0.05 0.00 85 1010.2
20260904031705 69 224 0.0 9.0 0.00 0.05 0.00 85 1010.3
20260904031511 69 244 0.0 9.0 0.00 0.00 0.00 85 1009.4
20260904030705 68 215 1.0 10.0 0.00 0.05 0.00 85 1010.4
20260904025705 68 246 1.0 6.0 0.00 0.05 0.00 86 1010.5
20260904025511 68 210 0.0 3.0 0.00 0.00 0.00 86 1009.6
20260904024511 68 249 0.0 8.0 0.00 0.00 0.00 86 1009.6
20260904024205 68 229 0.0 3.0 0.00 0.05 0.00 86 1010.7
20260904023706 68 206 0.0 2.0 0.00 0.05 0.00 86 1010.8
20260904023511 68 219 0.0 1.0 0.00 0.00 0.00 86 1009.9
20260904023205 68 205 0.0 3.0 0.00 0.05 0.00 86 1010.9
20260904022705 68 216 0.0 0.0 0.00 0.05 0.00 86 1010.9
20260904022511 67 232 0.0 0.0 0.00 0.00 0.00 86 1009.9
20260904021706 67 219 0.0 1.0 0.00 0.05 0.00 86 1011.2
20260904021511 67 231 0.0 1.0 0.00 0.00 0.00 86 1010.1
20260904021206 67 187 0.0 2.0 0.00 0.05 0.00 85 1011.0
20260904020706 67 211 0.0 5.0 0.00 0.05 0.00 85 1011.2
20260904020511 67 243 0.0 4.0 0.00 0.00 0.00 85 1010.2
20260904020205 67 201 1.0 3.0 0.00 0.05 0.00 85 1011.3
20260904015206 67 187 0.0 3.0 0.00 0.05 0.00 85 1011.5
20260904014705 67 193 0.0 1.0 0.00 0.05 0.00 85 1011.6
20260904014206 67 225 0.0 0.0 0.00 0.05 0.00 85 1011.7
20260904013511 67 233 0.0 0.0 0.00 0.00 0.00 85 1010.9
20260904013206 67 206 0.0 3.0 0.00 0.05 0.00 85 1011.8
20260904012512 67 207 0.0 1.0 0.00 0.00 0.00 85 1011.0
20260904012206 67 214 0.0 0.0 0.00 0.05 0.00 85 1012.0
20260904011705 67 198 0.0 1.0 0.00 0.05 0.00 85 1012.1
20260904011511 67 179 0.0 1.0 0.00 0.00 0.00 85 1011.2
20260904011206 67 203 0.0 3.0 0.00 0.05 0.00 85 1012.2
20260904010705 67 217 1.0 3.0 0.00 0.05 0.00 85 1012.3
20260904010511 67 186 0.0 3.0 0.00 0.00 0.00 85 1011.3
20260904010206 67 212 0.0 3.0 0.00 0.05 0.00 85 1012.4
20260904005706 67 229 0.0 0.0 0.00 0.05 0.00 85 1012.4
20260904005511 67 208 0.0 0.0 0.00 0.00 0.00 85 1011.4
20260904005205 67 215 0.0 0.0 0.00 0.05 0.00 84 1012.4
20260904004705 67 211 0.0 3.0 0.00 0.05 0.00 84 1012.2
20260904004511 67 213 0.0 3.0 0.00 0.00 0.00 84 1011.3
20260904004206 67 215 0.0 2.0 0.00 0.05 0.00 84 1012.3
20260904003705 67 190 0.0 1.0 0.00 0.05 0.00 84 1012.1
20260904003510 67 191 0.0 1.0 0.00 0.00 0.00 84 1011.1
20260904003205 67 193 0.0 0.0 0.00 0.05 0.00 84 1012.1
20260904002511 67 179 0.0 0.0 0.00 0.00 0.00 84 1011.3
20260904002206 67 186 0.0 0.0 0.00 0.05 0.00 84 1012.3
20260904001705 67 215 0.0 0.0 0.00 0.05 0.00 84 1012.7
20260904001511 67 209 0.0 0.0 0.00 0.00 0.00 84 1011.8
20260904001206 67 210 0.0 6.0 0.00 0.05 0.00 84 1012.6
20260904000705 67 210 0.0 2.0 0.00 0.05 0.00 84 1012.8
20260904000510 67 223 0.0 2.0 0.00 0.00 0.00 84 1011.9
20260904000206 67 216 0.0 0.0 0.00 0.05 0.00 84 1013.0
20260903235705 67 207 0.0 0.0 0.00 0.05 0.00 84 1013.1
20260903235206 67 198 0.0 0.0 0.00 0.05 0.00 84 1013.1
20260903234706 67 221 0.0 0.0 0.00 0.05 0.00 84 1013.1
20260903234205 67 217 0.0 0.0 0.00 0.05 0.00 83 1013.2
20260903233510 67 210 0.0 0.0 0.00 0.00 0.00 83 1012.2
20260903233206 67 192 0.0 0.0 0.00 0.05 0.00 83 1013.2
20260903232705 67 188 0.0 0.0 0.00 0.05 0.00 83 1013.2
20260903232511 67 203 0.0 3.0 0.00 0.00 0.00 83 1012.3
20260903232205 67 229 0.0 1.0 0.00 0.05 0.00 83 1013.2
20260903231706 66 222 0.0 1.0 0.00 0.05 0.00 83 1013.3
20260903231510 67 203 0.0 1.0 0.00 0.00 0.00 83 1012.4
20260903231205 66 209 0.0 0.0 0.00 0.05 0.00 83 1013.4
20260903230705 66 216 0.0 0.0 0.00 0.05 0.00 82 1013.5
20260903230510 67 241 0.0 0.0 0.00 0.00 0.00 82 1012.6
20260903230205 67 243 0.0 0.0 0.00 0.05 0.00 82 1013.5
20260903225705 67 223 0.0 0.0 0.00 0.05 0.00 82 1013.6
20260903225511 67 217 0.0 0.0 0.00 0.00 0.00 82 1012.7
20260903225205 67 227 0.0 0.0 0.00 0.05 0.00 82 1013.7
20260903224705 67 227 0.0 0.0 0.00 0.05 0.00 82 1013.7
20260903224510 67 233 0.0 0.0 0.00 0.00 0.00 82 1012.8
20260903224206 67 235 0.0 0.0 0.00 0.05 0.00 81 1013.7
20260903223705 67 218 0.0 0.0 0.00 0.05 0.00 81 1013.7
20260903223511 67 199 0.0 0.0 0.00 0.00 0.00 81 1012.7
20260903223205 67 231 0.0 0.0 0.00 0.05 0.00 81 1013.8
20260903222706 67 217 0.0 0.0 0.00 0.05 0.00 81 1013.8
20260903221705 67 218 0.0 0.0 0.00 0.05 0.00 81 1014.0
20260903221510 67 216 0.0 0.0 0.00 0.00 0.00 81 1013.1
20260903221205 66 227 0.0 0.0 0.00 0.05 0.00 81 1014.2
20260903220706 67 235 0.0 0.0 0.00 0.05 0.00 81 1014.2
20260903220205 67 235 0.0 0.0 0.00 0.05 0.00 81 1014.2
20260903215705 66 218 0.0 0.0 0.00 0.05 0.05 82 1013.9
20260903215205 66 206 0.0 0.0 0.00 0.05 0.05 82 1014.0
20260903214705 66 204 0.0 0.0 0.00 0.05 0.05 82 1014.2
20260903214511 67 210 0.0 0.0 0.00 0.05 0.05 82 1013.3
20260903214205 66 231 0.0 0.0 0.00 0.05 0.05 82 1014.2
20260903213705 66 204 0.0 0.0 0.00 0.05 0.05 82 1014.2
20260903213510 67 200 0.0 0.0 0.00 0.05 0.05 82 1013.3
20260903213205 67 226 0.0 0.0 0.00 0.05 0.05 82 1014.4
20260903212511 67 227 0.0 0.0 0.00 0.05 0.05 81 1013.5
20260903211705 67 227 0.0 0.0 0.00 0.05 0.05 81 1014.4
20260903211510 67 229 0.0 0.0 0.00 0.05 0.05 81 1013.5
20260903211205 67 233 0.0 0.0 0.00 0.05 0.05 81 1014.4
20260903210705 67 232 0.0 0.0 0.00 0.05 0.05 80 1014.4
20260903210205 67 235 0.0 0.0 0.00 0.05 0.05 80 1014.3
20260903205511 67 242 0.0 0.0 0.00 0.05 0.05 80 1013.5
20260903205205 67 230 0.0 0.0 0.00 0.05 0.05 80 1014.4
20260903204705 67 226 0.0 0.0 0.00 0.05 0.05 79 1014.3
20260903204510 67 230 0.0 0.0 0.00 0.05 0.05 79 1013.4
20260903204205 67 227 0.0 0.0 0.00 0.05 0.05 79 1014.4
20260903203705 67 236 0.0 0.0 0.00 0.05 0.05 79 1014.5
20260903203510 67 240 0.0 0.0 0.00 0.05 0.05 79 1013.5
20260903203205 67 237 0.0 0.0 0.00 0.05 0.05 78 1014.3
20260903202705 67 206 0.0 0.0 0.00 0.05 0.05 78 1014.2
20260903202510 67 238 0.0 0.0 0.00 0.05 0.05 78 1013.3
20260903202204 67 234 0.0 0.0 0.00 0.05 0.05 78 1014.4
20260903201705 67 230 0.0 0.0 0.00 0.05 0.05 78 1014.5
20260903201510 67 225 0.0 0.0 0.00 0.05 0.05 77 1013.6
20260903201205 68 227 0.0 0.0 0.00 0.05 0.05 77 1014.6
20260903200705 68 229 0.0 0.0 0.00 0.05 0.05 77 1014.6
20260903200510 68 248 0.0 0.0 0.00 0.05 0.05 77 1013.8
20260903200205 68 248 0.0 0.0 0.00 0.05 0.05 76 1014.6
20260903195705 68 250 0.0 0.0 0.00 0.05 0.05 76 1014.5
20260903195510 68 262 0.0 0.0 0.00 0.05 0.05 76 1013.6
20260903194705 68 249 0.0 0.0 0.00 0.05 0.05 75 1014.4
20260903194205 68 254 0.0 0.0 0.00 0.05 0.05 75 1014.4
20260903193705 68 222 0.0 0.0 0.00 0.05 0.05 74 1014.4
20260903193510 68 238 0.0 1.0 0.00 0.05 0.05 74 1013.4
20260903193205 68 262 0.0 1.0 0.00 0.05 0.05 74 1014.6
20260903192705 68 254 0.0 1.0 0.00 0.05 0.05 74 1014.6
20260903192510 69 260 0.0 1.0 0.00 0.05 0.05 74 1013.6
20260903192205 69 262 0.0 1.0 0.00 0.05 0.05 74 1014.6
20260903191704 69 255 0.0 0.0 0.00 0.05 0.05 74 1014.5
20260903191510 69 248 0.0 0.0 0.00 0.05 0.05 74 1013.7
20260903191205 69 262 0.0 0.0 0.00 0.05 0.05 74 1014.5
20260903190705 69 251 0.0 1.0 0.00 0.05 0.05 74 1014.4
20260903190510 69 252 0.0 1.0 0.00 0.05 0.05 74 1013.5
20260903190205 69 245 0.0 0.0 0.00 0.05 0.05 73 1014.4
20260903185705 69 253 0.0 1.0 0.00 0.05 0.05 73 1014.3
20260903185510 69 250 0.0 0.0 0.00 0.05 0.05 73 1013.4
20260903184510 69 196 0.0 1.0 0.00 0.05 0.05 73 1013.6
20260903184204 69 236 0.0 1.0 0.00 0.05 0.05 73 1014.4
20260903183704 69 274 0.0 3.0 0.00 0.05 0.05 73 1014.5
20260903183510 69 222 0.0 4.0 0.00 0.05 0.05 73 1013.6
20260903182705 69 249 0.0 0.0 0.00 0.05 0.05 72 1014.6
20260903182510 69 251 0.0 0.0 0.00 0.05 0.05 72 1013.7
20260903182204 70 264 0.0 1.0 0.00 0.05 0.05 72 1014.5
20260903181705 70 258 0.0 0.0 0.00 0.05 0.05 71 1014.4
20260903181204 70 268 2.0 9.0 0.00 0.05 0.05 71 1014.4
20260903180704 70 265 2.0 9.0 0.00 0.05 0.05 71 1014.4
20260903180510 70 266 1.0 10.0 0.00 0.05 0.05 71 1013.5
20260903180205 70 266 2.0 10.0 0.00 0.05 0.05 71 1014.6
20260903175705 70 271 3.0 9.0 0.00 0.05 0.05 71 1014.5
20260903175510 70 274 3.0 11.0 0.00 0.05 0.05 72 1013.4
20260903175205 70 259 5.0 12.0 0.00 0.05 0.05 71 1014.4
20260903174705 70 272 2.0 12.0 0.00 0.05 0.05 72 1014.3
20260903174510 71 256 1.0 6.0 0.00 0.05 0.05 72 1013.3
20260903174205 71 281 1.0 3.0 0.00 0.05 0.05 72 1014.1
20260903173705 71 290 0.0 8.0 0.00 0.05 0.05 71 1014.1
20260903173510 71 273 1.0 8.0 0.00 0.05 0.05 71 1013.2
20260903173204 71 261 0.0 5.0 0.00 0.05 0.05 71 1014.1
20260903172705 71 256 0.0 0.0 0.00 0.05 0.05 71 1014.1
20260903172511 71 270 0.0 0.0 0.00 0.05 0.05 71 1013.1
20260903172205 71 255 0.0 0.0 0.00 0.05 0.05 71 1014.0
20260903171704 71 263 0.0 1.0 0.00 0.05 0.05 70 1013.9
20260903171511 71 264 0.0 1.0 0.00 0.05 0.05 70 1013.1
20260903171205 71 268 0.0 1.0 0.00 0.05 0.05 70 1013.9
20260903170705 71 256 0.0 3.0 0.00 0.05 0.05 70 1013.9
20260903170510 72 244 0.0 1.0 0.00 0.05 0.05 69 1013.0
20260903170205 72 268 0.0 1.0 0.00 0.05 0.05 69 1013.8
20260903165705 72 260 0.0 1.0 0.00 0.05 0.05 68 1013.7
20260903165510 72 280 0.0 3.0 0.00 0.05 0.05 68 1012.8
20260903165205 72 253 1.0 9.0 0.00 0.05 0.05 68 1013.7
20260903164510 72 226 0.0 4.0 0.00 0.05 0.05 68 1012.8
20260903164205 72 259 0.0 9.0 0.00 0.05 0.05 67 1013.8
20260903163704 72 270 5.0 12.0 0.00 0.05 0.05 67 1013.8
20260903163510 73 271 2.0 10.0 0.00 0.05 0.05 67 1012.9
20260903163205 73 237 0.0 5.0 0.00 0.05 0.05 67 1013.8
20260903162704 73 268 0.0 3.0 0.00 0.05 0.05 67 1013.8
20260903162510 73 237 0.0 4.0 0.00 0.05 0.05 67 1012.8
20260903161705 73 259 1.0 9.0 0.00 0.05 0.05 67 1013.7
20260903161510 73 239 0.0 9.0 0.00 0.05 0.05 67 1012.8
20260903161205 73 268 0.0 3.0 0.00 0.05 0.05 67 1013.6
20260903160704 73 247 3.0 12.0 0.00 0.05 0.05 66 1013.6
20260903160205 73 257 0.0 12.0 0.00 0.05 0.05 66 1013.6
20260903155705 74 241 2.0 12.0 0.00 0.05 0.05 66 1013.6
20260903155510 74 254 1.0 11.0 0.00 0.05 0.05 65 1012.7
20260903154704 74 274 5.0 13.0 0.00 0.05 0.05 63 1013.5
20260903154510 74 282 3.0 11.0 0.00 0.05 0.05 64 1012.7
20260903153705 75 269 4.0 12.0 0.00 0.05 0.05 62 1013.4
20260903153204 75 246 3.0 12.0 0.00 0.05 0.05 61 1013.5
20260903152704 75 290 2.0 13.0 0.00 0.05 0.05 64 1013.3
20260903152510 75 256 0.0 3.0 0.00 0.05 0.05 65 1012.5
20260903152205 75 241 1.0 12.0 0.00 0.05 0.05 64 1013.3
20260903151704 75 252 1.0 12.0 0.00 0.05 0.05 65 1013.3
20260903151204 74 271 1.0 12.0 0.00 0.05 0.05 66 1013.4
20260903150705 74 252 3.0 13.0 0.00 0.05 0.05 67 1013.4
20260903150510 74 271 1.0 10.0 0.00 0.05 0.05 68 1012.5
20260903150204 74 249 1.0 12.0 0.00 0.05 0.05 68 1013.4
20260903145510 73 283 4.0 12.0 0.00 0.05 0.05 69 1012.4
20260903145204 73 252 6.0 12.0 0.00 0.05 0.05 68 1013.3
20260903144704 74 269 2.0 13.0 0.00 0.05 0.05 68 1013.3